English version Home page |
Updated on July 27, 2024 |
|
軌道要素Epoch 2024 Mar. 31.0 TT = JDT 2460400.5 T 2025 June 13.66371 TT Rudenko q 3.8759433 (2000.0) P Q z -0.0003444 Peri. 353.29364 -0.38264820 +0.02734018 +/-0.0000021 Node 112.13791 +0.88721140 -0.26798872 e 1.0013348 Incl. 94.44814 +0.25775238 +0.96303404 >From 250 observations 2024 Jan. 3-May 27, mean residual 0".4.
|
星図
|
光度変化m1 = 6.5 + 5 logΔ + 10.0 log r
|
軌道要素はM.P.E.C. 2024-K130に掲載されたものです。
|